User: anonymous   Login
Location: Unspecified
(0.0000°N, 0.0000°E)
Time: 22:46:38
(UTC+00:00)
Language:

GUOWANG - Orbit

View from above orbital plane
View from above orbital plane
View from above satellite
View from above satellite

Ground track
Ground track

The orbit is defined by the following mean orbital elements,

1 66918U          26145.59702139 +.00000000 +00000-0 +52659-4 0 00008
2 66918  50.0044 227.0158 0001054 214.6751 145.4053 13.29325283    06
Epoch (UTC): 25 May 2026 14:19:42
Eccentricity: 0.0001054
inclination: 50.0044°
perigee height: 1149 km
apogee height: 1150 km
right ascension of ascending node: 227.0158°
argument of perigee: 214.6751°
revolutions per day: 13.29325283
mean anomaly at epoch: 145.4053°

The dashed part of the orbit path shows where the satellite is in the earth's shadow,  

DLR